Zurück zum Katalog

STARLINK-30488

AktivKommunikationVLEO
NORAD 57931·PAYLOAD·🇺🇸 United States

Gestartet Sep 24, 2023 von Cape Canaveral Space Force Station

Loading…

Nächste Überflüge (nächste 24 Stunden)

TLE

AktuellSource: CelesTrak SupGP

Epoche: Sep 14, 2026, 22:00 UTC

1 57931C 23147U   26257.91715278 -.00017725  00000+0 -64191-3 0  2578
2 57931  43.0035 340.0526 0001889 274.8178 196.6154 15.27590794    17

Verfolge STARLINK-30488 in Echtzeit mit AllMySat

Download on the App Store